Flag for Germany Weather past 2 weeks in Hannover, Lower Saxony, Germany

Now
59 °F

Partly sunny.


Feels Like: 58 °F
Forecast: 47 / 58 °F
Wind: 6 mph from Southwest

Location: Hannover

Current Time: May 29, 2015 at 9:21:13 PM

Latest Report: May 29, 2015 at 8:50 PM


Visibility: N/A

Pressure: 29.68 "Hg

Humidity: 59%

Dew point: 45 °F

Location of HannoverLocation

Historic Weather in Hannover — Graph

°F

Hannover temperature yesterday

Maximum temperature yesterday: 66 °F (at 1:20 PM)
Minimum temperature yesterday: 50 °F (at 1:50 AM)
Average temperature yesterday: 56 °F

Past Weeks' High & Low Weather Summary

 TemperatureHumidityPressure
High66 °F (May 18, 3:20 PM)100% (May 15, 12:50 AM)30.30 "Hg (May 15, 12:50 AM)
Low34 °F (May 15, 4:50 AM)42% (May 19, 2:20 PM)29.59 "Hg (May 18, 8:50 PM)
Average52 °F72%30.03 "Hg
* Reported May 14 8:20 PM — May 29 8:20 PM, Hannover, Weather by CustomWeather, © 2015

Note: Actual official high and low records may vary slightly from our data, if they occured in-between our weather recording intervals... More about our weather records

Advertising

Hannover weather history for previous 24 hours

 ConditionsComfort  
Time TempWeatherWind HumidityBarometerVisibility
8:20 PM
Fri, May 29
61 °FPartly sunny.8 mph55%29.68 "HgN/A
7:50 PM61 °FPartly sunny.9 mph52%29.68 "HgN/A
7:20 PM61 °FScattered clouds.9 mph52%29.71 "HgN/A
6:50 PM63 °FScattered clouds.13 mph49%29.71 "HgN/A
6:20 PM63 °FScattered clouds.12 mph49%29.71 "HgN/A
5:50 PM64 °FPartly sunny.10 mph49%29.71 "HgN/A
5:20 PM64 °FBroken clouds.15 mph49%29.71 "HgN/A
4:50 PM63 °FBroken clouds.12 mph49%29.74 "HgN/A
4:20 PM63 °FBroken clouds.12 mph49%29.74 "HgN/A
3:50 PM63 °FBroken clouds.14 mph64%29.74 "HgN/A
3:20 PM61 °FBroken clouds.15 mph59%29.74 "HgN/A
2:50 PM63 °FBroken clouds.14 mph59%29.77 "HgN/A
2:20 PM63 °FBroken clouds.10 mph56%29.77 "HgN/A
1:50 PM61 °FBroken clouds.12 mph59%29.80 "HgN/A
1:20 PM61 °FPartly sunny.9 mph55%29.80 "HgN/A
12:50 PM59 °FPartly sunny.10 mph59%29.83 "HgN/A
12:20 PM59 °FPartly sunny.9 mph59%29.83 "HgN/A
11:50 AM59 °FPartly sunny.12 mph59%29.86 "HgN/A
11:20 AM59 °FPartly sunny.10 mph59%29.86 "HgN/A
10:50 AM59 °FPartly sunny.10 mph55%29.86 "HgN/A
10:20 AM59 °FBroken clouds.10 mph59%29.86 "HgN/A
9:50 AM57 °FPartly sunny.9 mph63%29.89 "HgN/A
9:20 AM55 °FPartly sunny.12 mph72%29.89 "HgN/A
8:50 AM54 °FSunny.10 mph77%29.89 "Hg10 mi
8:20 AM52 °FSunny.9 mph82%29.89 "Hg10 mi
7:50 AM50 °FSunny.9 mph82%29.89 "Hg10 mi
7:20 AM48 °FPassing clouds.5 mph87%29.92 "HgN/A
6:50 AM46 °FSunny.3 mph87%29.92 "Hg10 mi
6:20 AM45 °FFog.5 mph93%29.92 "HgN/A
5:20 AM41 °FFog.2 mph93%29.92 "HgN/A
4:50 AM41 °FFog.1 mph100%29.92 "HgN/A
4:20 AM41 °FClear.2 mph100%29.92 "Hg10 mi
3:50 AM41 °FClear.2 mph100%29.92 "Hg10 mi
3:20 AM41 °FClear.2 mph93%29.92 "Hg10 mi
2:50 AM41 °FClear.2 mph93%29.95 "Hg10 mi
2:20 AM43 °FClear.5 mph93%29.92 "Hg10 mi
1:50 AM43 °FClear.3 mph93%29.95 "Hg10 mi
1:20 AM46 °FClear.3 mph93%29.92 "Hg10 mi
12:50 AM46 °FPassing clouds.5 mph87%29.92 "HgN/A
11:50 PM
Thu, May 28
50 °FPassing clouds.6 mph88%29.92 "HgN/A
11:20 PM50 °FPassing clouds.5 mph94%29.92 "HgN/A
10:50 PM52 °FFog.5 mph94%29.92 "HgN/A
10:20 PM52 °FFog.2 mph94%29.92 "HgN/A
9:50 PM50 °FFog.3 mph94%29.92 "HgN/A
9:20 PM54 °FPartly sunny.3 mph88%29.89 "HgN/A
Weather by CustomWeather, © 2015

See weather overviewHow to use our weather pages